EZY56LC EGNM-EGGW

Flight info

Callsign EZY56LC
Flight time 0h 30m
Altitude 18000
Route NELSA DCT MCT/N0400F190 DCT LISTO
Aircraft A319/M-SDE3FGHIRWY/LB1

Departure

Time 2026-05-04 15:40
Airport Leeds Bradford Airport (EGNM)

Arrival

Time 2026-05-04 16:11
Airport London Luton Airport (EGGW)
Time Latitude Longitude Altitude Speed Heading
2026-05-04 15:24 53.86883 -1.65619 665 ft 0 kts
2026-05-04 15:33 53.86859 -1.65620 665 ft 3 kts
2026-05-04 15:34 53.86827 -1.65645 663 ft 0 kts 87°
2026-05-04 15:35 53.86827 -1.65576 663 ft 6 kts 92°
2026-05-04 15:35 53.86819 -1.65484 663 ft 10 kts 103°
2026-05-04 15:35 53.86752 -1.65416 661 ft 14 kts 179°
2026-05-04 15:36 53.86532 -1.65435 668 ft 15 kts 182°
2026-05-04 15:36 53.86428 -1.65443 673 ft 9 kts 182°
2026-05-04 15:36 53.86426 -1.65443 673 ft 0 kts 182°
2026-05-04 15:37 53.86422 -1.65444 673 ft 5 kts 184°
2026-05-04 15:37 53.86305 -1.65460 679 ft 22 kts 185°
2026-05-04 15:38 53.86186 -1.65429 680 ft 17 kts 149°
2026-05-04 15:38 53.86096 -1.65294 679 ft 18 kts 137°
2026-05-04 15:38 53.85992 -1.65131 672 ft 20 kts 137°
2026-05-04 15:38 53.85912 -1.64954 665 ft 15 kts 110°
2026-05-04 15:39 53.85875 -1.64948 664 ft 7 kts 271°
2026-05-04 15:39 53.85904 -1.65001 665 ft 0 kts 317°
2026-05-04 15:39 53.86084 -1.65277 678 ft 74 kts 317°
2026-05-04 15:40 53.86645 -1.66148 667 ft 142 kts 317°
2026-05-04 15:40 53.87447 -1.67351 1140 ft 153 kts 320°
2026-05-04 15:40 53.88201 -1.68630 1895 ft 154 kts 309°
2026-05-04 15:40 53.88938 -1.70085 2417 ft 173 kts 309°
2026-05-04 15:41 53.89750 -1.71762 2828 ft 197 kts 302°
2026-05-04 15:41 53.90034 -1.74129 3253 ft 221 kts 265°
2026-05-04 15:41 53.89851 -1.76866 3790 ft 246 kts 261°
2026-05-04 15:41 53.89290 -1.79710 4589 ft 261 kts 243°
2026-05-04 15:42 53.88235 -1.82251 5630 ft 267 kts 230°
2026-05-04 15:42 53.87031 -1.84682 6566 ft 273 kts 231°
2026-05-04 15:42 53.85818 -1.87163 6897 ft 273 kts 231°
2026-05-04 15:42 53.84649 -1.89703 7105 ft 275 kts 240°
2026-05-04 15:43 53.84030 -1.92756 8025 ft 275 kts 262°
2026-05-04 15:43 53.83738 -1.95969 9020 ft 279 kts 253°
2026-05-04 15:43 53.82679 -1.98716 9916 ft 286 kts 220°
2026-05-04 15:43 53.80870 -2.00167 10647 ft 299 kts 196°
2026-05-04 15:44 53.78780 -2.01084 10965 ft 322 kts 197°
2026-05-04 15:44 53.76585 -2.02205 11230 ft 345 kts 199°
2026-05-04 15:44 53.74249 -2.03528 11620 ft 361 kts 200°
2026-05-04 15:44 53.71859 -2.04958 12315 ft 367 kts 200°
2026-05-04 15:45 53.69438 -2.06430 13084 ft 372 kts 200°
2026-05-04 15:45 53.66988 -2.07914 13878 ft 376 kts 200°
2026-05-04 15:45 53.64514 -2.09399 14570 ft 379 kts 200°
2026-05-04 15:45 53.62011 -2.10889 15236 ft 383 kts 200°
2026-05-04 15:46 53.59480 -2.12382 15904 ft 387 kts 199°
2026-05-04 15:46 53.56918 -2.13878 16562 ft 391 kts 199°
2026-05-04 15:46 53.54332 -2.15383 17215 ft 395 kts 199°
2026-05-04 15:46 53.51723 -2.16904 17823 ft 399 kts 199°
2026-05-04 15:47 53.49094 -2.18436 18022 ft 400 kts 199°
2026-05-04 15:47 53.46411 -2.20005 18072 ft 417 kts 199°
2026-05-04 15:47 53.43615 -2.21635 18056 ft 432 kts 199°
2026-05-04 15:47 53.40760 -2.23295 18056 ft 435 kts 199°
2026-05-04 15:48 53.37884 -2.24689 18055 ft 436 kts 192°
2026-05-04 15:48 53.34870 -2.25305 18057 ft 437 kts 182°
2026-05-04 15:48 53.28833 -2.24203 18058 ft 437 kts 170°
2026-05-04 15:49 53.25842 -2.23301 18057 ft 437 kts 170°
2026-05-04 15:49 53.22844 -2.22410 18059 ft 437 kts 170°
2026-05-04 15:49 53.19855 -2.21530 18060 ft 436 kts 170°
2026-05-04 15:49 53.16882 -2.20524 18057 ft 435 kts 165°
2026-05-04 15:50 53.14032 -2.18801 18060 ft 436 kts 155°
2026-05-04 15:50 53.11392 -2.16324 18062 ft 436 kts 146°
2026-05-04 15:50 53.08941 -2.13342 18064 ft 437 kts 144°
2026-05-04 15:50 53.06496 -2.10343 18066 ft 437 kts 144°
2026-05-04 15:51 53.04077 -2.07389 18069 ft 437 kts 144°
2026-05-04 15:51 53.01625 -2.04401 18069 ft 437 kts 144°
2026-05-04 15:51 52.99174 -2.01423 18065 ft 437 kts 144°
2026-05-04 15:51 52.96715 -1.98448 18069 ft 437 kts 144°
2026-05-04 15:52 52.94256 -1.95483 18079 ft 437 kts 145°
2026-05-04 15:52 52.91797 -1.92522 18082 ft 436 kts 145°
2026-05-04 15:52 52.89341 -1.89568 18083 ft 436 kts 145°
2026-05-04 15:52 52.86889 -1.86621 18084 ft 436 kts 145°
2026-05-04 15:53 52.84434 -1.83669 18075 ft 436 kts 144°
2026-05-04 15:53 52.81984 -1.80721 18075 ft 436 kts 145°
2026-05-04 15:53 52.79526 -1.77780 18074 ft 435 kts 145°
2026-05-04 15:53 52.77070 -1.74850 18078 ft 435 kts 145°
2026-05-04 15:54 52.74587 -1.71992 18064 ft 435 kts 149°
2026-05-04 15:54 52.71936 -1.69613 18053 ft 434 kts 153°
2026-05-04 15:54 52.69260 -1.67310 18053 ft 433 kts 153°
2026-05-04 15:54 52.66585 -1.65005 18052 ft 433 kts 153°
2026-05-04 15:55 52.63916 -1.62708 18045 ft 433 kts 153°
2026-05-04 15:55 52.61253 -1.60420 18046 ft 432 kts 153°
2026-05-04 15:55 52.58589 -1.58133 17843 ft 432 kts 153°
2026-05-04 15:55 52.55928 -1.55853 17334 ft 429 kts 153°
2026-05-04 15:56 52.53293 -1.53596 16835 ft 426 kts 153°
2026-05-04 15:56 52.50666 -1.51349 16348 ft 424 kts 153°
2026-05-04 15:56 52.48057 -1.49126 15879 ft 420 kts 153°
2026-05-04 15:56 52.46337 -1.47667 15557 ft 419 kts 154°
2026-05-04 15:57 52.43078 -1.44900 14963 ft 417 kts 154°
2026-05-04 15:57 52.40503 -1.42718 14499 ft 415 kts 154°
2026-05-04 15:57 52.37940 -1.40544 14040 ft 413 kts 154°
2026-05-04 15:57 52.35392 -1.38382 13551 ft 411 kts 154°
2026-05-04 15:58 52.32852 -1.36234 13049 ft 409 kts 154°
2026-05-04 15:58 52.31181 -1.34825 12719 ft 407 kts 154°
2026-05-04 15:58 52.28676 -1.32693 12229 ft 404 kts 153°
2026-05-04 15:58 52.26224 -1.30479 11741 ft 401 kts 152°
2026-05-04 15:59 52.23813 -1.28198 11271 ft 398 kts 151°
2026-05-04 15:59 52.21438 -1.25901 10800 ft 396 kts 151°
2026-05-04 15:59 52.19096 -1.23631 10337 ft 391 kts 150°
2026-05-04 15:59 52.16782 -1.21406 9879 ft 379 kts 150°
2026-05-04 16:00 52.14561 -1.19292 9541 ft 364 kts 151°
2026-05-04 16:00 52.12408 -1.17266 9227 ft 350 kts 151°
2026-05-04 16:00 52.10356 -1.15352 8908 ft 338 kts 152°
2026-05-04 16:00 52.08345 -1.13484 8597 ft 327 kts 152°
2026-05-04 16:01 52.06400 -1.11673 8287 ft 317 kts 152°
2026-05-04 16:01 52.04553 -1.09823 7970 ft 299 kts 143°
2026-05-04 16:01 52.03165 -1.07491 7739 ft 286 kts 131°
2026-05-04 16:01 52.01916 -1.05003 7502 ft 283 kts 131°
2026-05-04 16:02 52.00675 -1.02531 7280 ft 281 kts 131°
2026-05-04 16:02 51.99448 -1.00083 7057 ft 279 kts 130°
2026-05-04 16:02 51.97060 -0.95306 6640 ft 264 kts 131°
2026-05-04 16:03 51.95922 -0.93029 6473 ft 255 kts 132°
2026-05-04 16:03 51.94822 -0.90829 6294 ft 248 kts 132°
2026-05-04 16:03 51.93741 -0.88676 6117 ft 245 kts 131°
2026-05-04 16:03 51.92671 -0.86546 5934 ft 243 kts 131°
2026-05-04 16:04 51.91605 -0.84421 5755 ft 243 kts 131°
2026-05-04 16:04 51.89492 -0.80206 5399 ft 240 kts 130°
2026-05-04 16:04 51.88443 -0.78114 5174 ft 238 kts 131°
2026-05-04 16:05 51.87239 -0.76364 4815 ft 235 kts 150°
2026-05-04 16:05 51.85759 -0.75424 4676 ft 224 kts 166°
2026-05-04 16:05 51.83214 -0.72965 4398 ft 210 kts 130°
2026-05-04 16:06 51.82477 -0.70990 4263 ft 203 kts 111°
2026-05-04 16:06 51.82479 -0.65389 3948 ft 179 kts 73°
2026-05-04 16:07 51.82928 -0.62845 3674 ft 176 kts 73°
2026-05-04 16:07 51.83909 -0.57250 2997 ft 167 kts 72°
2026-05-04 16:08 51.84222 -0.55465 2775 ft 162 kts 71°
2026-05-04 16:08 51.85126 -0.50293 2129 ft 158 kts 70°
2026-05-04 16:09 51.85721 -0.46881 1705 ft 156 kts 70°
2026-05-04 16:09 51.86294 -0.43534 1267 ft 148 kts 71°
2026-05-04 16:10 51.86816 -0.40473 814 ft 137 kts 69°
2026-05-04 16:11 51.87525 -0.36514 540 ft 54 kts 75°
2026-05-04 16:11 51.87599 -0.36069 526 ft 21 kts 75°
2026-05-04 16:12 51.87743 -0.35946 529 ft 4 kts 336°
2026-05-04 16:14 51.87784 -0.36046 532 ft 14 kts 261°
2026-05-04 16:14 51.87738 -0.36367 532 ft 15 kts 256°
2026-05-04 16:15 51.87670 -0.36736 534 ft 6 kts 255°
2026-05-04 16:16 51.87646 -0.36877 534 ft 7 kts 255°
2026-05-04 16:16 51.87596 -0.37172 534 ft 10 kts 254°
2026-05-04 16:17 51.87596 -0.37397 536 ft 10 kts 306°
2026-05-04 16:18 51.87747 -0.37717 534 ft 14 kts 291°
2026-05-04 16:18 51.87776 -0.37832 534 ft 7 kts 295°
2026-05-04 16:19 51.87842 -0.37843 534 ft 0 kts 26°